Гусь-Хрустальный

Россия / Владимирская область     55°37′09″N   40°39′26″E
темп.,
°C
ветер,
м/с
пор.,
м/с
влажн.,
%
обл.,
%
осадки,
мм/ч
давл.,
гПа
погр.,
м
14 июня, пн
пн1400:00+14ююз229570 0.0 101115
03:00+14ююз22956 0.0 101215
06:00+16ююз13892 0.0 1013117
09:00+22ююз23647 0.0 1014697
12:00+25юз22485 0.0 10141777
15:00+26юз2343100 0.0 10142321
18:00+21зсз2372100 0.0 101455
21:00+18св11835 0.0 101411
15 июня, вт
вт1500:00+16зсз11845 0.1 101411
03:00+15ссз118661 0.1 101411
06:00+18юз117997 0.0 101429
09:00+21с006797 0.0 1014291
12:00+25юв115510 0.4 1013839
15:00+26ююв1249100 0.4 10111880
18:00+21юв1271100 0.1 101021
21:00+19юз118188 0.8 101012
16 июня, ср
ср1600:00+17зюз119267 3.8 101011
03:00+16з119554 5.3 100911
06:00+18з129231 1.8 100994
09:00+21зсз23777 1.8 1009494
12:00+22ссз577966 4.1 1010971
15:00+23ссз785221 5.1 10121636
18:00+21ссз59610 0.0 10131286
21:00+15ссз310680 0.0 1016296
17 июня, чт
чт1700:00+12ссз3107199 0.0 1018206
03:00+11ссз39700 0.0 1020178
06:00+13с39675 0.0 1021258
09:00+19с47430 0.0 10221156
12:00+22с57380 0.0 10231869
15:00+23ссз57403 0.0 10232163
18:00+21с36530 0.0 10241556
21:00+16ссз22770 0.0 102420
18 июня, пт
пт1800:00+14ссз11865 0.0 102510
03:00+13сз11875 0.0 102610
06:00+16сз12760 0.0 1027111
09:00+22сз23543 0.0 1027728
12:00+25ссз23400 0.0 10261908
15:00+26сз22370 0.0 10252016
18:00+25зсз13515 0.0 10251548
21:00+19зюз22759 0.0 102515